Voltar ao catálogo

DELTA 1 DEB

LostLEO
NORAD 29188·DEBRIS·🇺🇸 United States

Lançado Jan 11, 1968 de Vandenberg Space Force Base

Loading…

Próximas Passagens (próximas 24 horas)

TLE

ObsoletoSource: Space-Track

Época: Dec 19, 2025, 12:02 UTC

1 29188U 68002M   25353.50164381  .00001860  00000-0  26456-2 0  9990
2 29188 105.8294  84.8766 0249526 350.2516  27.4921 13.47227278211910

Acompanhe DELTA 1 DEB em tempo real com AllMySat

Download on the App Store